www.pogodaiklimat.ru

Погода и климат >> Архив погоды >> Россия >> Волгоградская область >> Волгоград город


ПОГОДА в Волгограде город

  • Прогноз погоды в Волгограде город
  • Монитор погоды в Волгограде город

АРХИВ ПОГОДЫ в Волгограде город

Время (UTC), дата Ветер
(напр.,м/с)
 
Видим.   Явления Облачность Т
(С)
Тd
(С)
f
(%)
Тe
(С)
Тes
(С)
Комфортность P
(гПа)
Po
(гПа)
Тmin
(С)
Tmax
(С)
R
(мм)
R24
(мм)
S
(см)
06 17.07 ЮЗ 2 10 км 8/6 600 м
[Sc Ac cast]
+20.7 +15.1 70 +24 +27 комфорт 1005.3 992.0
09 17.07 ЮЗ 3-10
{10}
10 км 6/6 1000 м
[Cb cap]
+23.1 +14.6 59 +27 +33 душно 1005.4 992.2
12 17.07 Ю 2
{10}
10 км 4/3 1500 м
[Cu hum Ci fib]
+26.2 +12.5 43 +28 +35 жарко 1005.2 992.1
15 17.07 СЗ 1 10 км 3/3 1500 м
[Cu hum]
+26.0 +12.3 43 +28 +29 жарко 1004.9 991.8 +26.6
18 17.07 СЗ 2 10 км 3/0
[Ci fib]
+22.1 +13.2 57 +25 +25 комфорт 1006.5 993.2
21 17.07 СЗ 1 10 км ясно +20.1 +13.8 67 +23 +23 комфорт 1007.4 994.0
00 18.07 СЗ 1 10 км ясно +18.1 +13.0 72 +19 +19 1007.1 993.6
03 18.07 СЗ 2 10 км ясно +20.0 +13.3 65 +23 +24 комфорт 1007.5 994.1 +17.6
06 18.07 ЮВ 1 10 км ясно +24.8 +14.5 53 +27 +40 жарко 1008.0 994.8
09 18.07 ЮВ 1 10 км 6/4 1500 м
[Cu med, cong Ci]
+27.6 +12.8 40 +29 +41 жарко 1007.9 994.9
12 18.07 ЮВ 1 10 км 8/4 1500 м
[Cu med, cong Cc]
+29.4 +11.6 33 +30 +37 жарко 1007.5 994.5
15 18.07 Ю 1 10 км 8/0
[Ac As Cc]
+28.2 +10.5 33 +29 +30 жарко 1007.4 994.4 +30.2
18 18.07 ЮЗ 3
{10}
10 км слаб. ливневой дождь 10/10 600 м
[Cb cap]
+20.3 +16.1 77 +23 +23 комфорт 1010.4 997.0
21 18.07 СЗ 4 10 км {ливн. осадки} 10/10 300 м
[Cb cap]
+19.5 +16.1 81 +21 +21 комфорт 1010.2 996.8
00 19.07 С 2
{10}
10 км в посл. час ливневой дождь 10/10 300 м
[Cb cap]
+19.0 +14.0 73 +21 +21 комфорт 1011.0 997.5
03 19.07 СЗ 3 10 км 10/6 300 м
[Cb cap Ac cast]
+18.8 +15.0 79 +20 +20 1012.1 998.6 +18.2 3
06 19.07 С 2 10 км 1/0
[Ci fib]
+23.4 +14.4 57 +27 +38 душно 1012.4 999.2
09 19.07 СЗ 2 10 км 3/3 1500 м
[Cu hum]
+27.6 +11.4 36 +28 +41 жарко 1012.1 999.0
12 19.07 С 2 10 км 8/4 1000 м
[Cu med, cong Ci fib]
+27.8 +12.4 39 +29 +35 жарко 1011.8 998.7
15 19.07 СЗ 1 10 км 9/1 1000 м
[Sc diur, vesp Cc]
+28.2 +10.9 34 +29 +30 жарко 1011.9 998.8 +30.3
18 19.07 В 1 10 км 8/3 1000 м
[Sc diur, vesp Ac cast Ci fib]
+25.0 +13.1 48 +27 +27 жарко 1013.0 999.8
21 19.07 СЗ 3 10 км 9/0
[Ci]
+23.1 +9.1 41 +25 +25 комфорт 1013.7 1000.4
00 20.07 С 2 10 км 9/0
[Ci]
+21.1 +8.1 43 +22 +22 комфорт 1014.9 1001.5
03 20.07 С 2 10 км 1/0
[Ci fib]
+21.0 +7.9 43 +23 +24 комфорт 1016.1 1002.6 +19.6
06 20.07 С 2 10 км ясно +26.7 +6.8 28 +26 +37 жарко 1016.9 1003.7
09 20.07 СЗ 1 10 км 1/1 1500 м
[Cu med, cong]
+28.5 +7.1 26 +28 +46 жарко 1017.0 1003.8
12 20.07 СЗ 1 10 км 3/3 1500 м
[Cu med, cong]
+29.8 +5.5 22 +28 +37 жарко 1016.4 1003.3
15 20.07 СЗ 1 10 км 1/1 1500 м
[Cu med, cong]
+29.5 +4.4 20 +28 +29 жарко 1016.2 1003.1 +30.3
18 20.07 штиль 0 10 км ясно +24.5 +6.4 31 +24 +24 комфорт 1017.0 1003.7
21 20.07 С 1 10 км ясно +23.4 +6.2 33 +24 +24 комфорт 1017.6 1004.2
00 21.07 СЗ 1 10 км ясно +21.4 +6.2 37 +22 +22 комфорт 1017.9 1004.4
03 21.07 С 1 10 км ясно +24.0 +6.8 33 +24 +26 комфорт 1018.2 1004.8 +20.1
06 21.07 В 2 10 км ясно +27.7 +6.1 25 +27 +37 жарко 1018.1 1004.9
09 21.07 Ю 2 10 км 6/0
[Ci fib]
+29.8 +5.4 21 +28 +43 жарко 1017.1 1004.0
12 21.07 С 1 10 км 10/0
[Ci]
+30.3 +6.3 22 +29 +39 жарко 1015.9 1002.9
15 21.07 ЮВ 1 10 км 10/0
[Ac trans Ci fib]
+28.9 +8.6 28 +28 +29 жарко 1015.0 1001.9 +30.8
18 21.07 штиль 0 10 км 10/0
[Ci fib]
+25.6 +9.0 35 +26 +26 жарко 1015.0 1001.7
21 21.07 штиль 0 10 км 10/0
[Ac trans Ci fib]
+24.6 +9.5 38 +25 +25 комфорт 1014.8 1001.5
00 22.07 ЮЗ 1 10 км 10/0
[As op]
+22.9 +14.6 59 +27 +27 душно 1015.1 1001.8
03 22.07 ЮЗ 3 10 км в посл. час дождь 10/4 300 м
[Sc As op]
+20.3 +16.3 78 +24 +24 комфорт 1015.6 1002.2 +20.3 0.0
06 22.07 СЗ 2 10 км {дождь} 10/5 1000 м
[Sc Ac As]
+21.9 +14.3 62 +25 +27 комфорт 1015.3 1001.9
09 22.07 СЗ 2 10 км 9/0
[Ac cast Cc]
+26.3 +13.0 44 +28 +39 жарко 1014.2 1001.0
12 22.07 ЮВ 1 10 км 4/3 1000 м
[Cu med, cong Ac cuf]
+29.9 +8.5 26 +29 +37 жарко 1013.0 1000.0
15 22.07 В 2 10 км 1/1 1500 м
[Sc diur, vesp]
+28.8 +9.3 30 +29 +30 жарко 1012.7 999.6 +30.2 0.1
18 22.07 штиль 0 10 км 3/3 1500 м
[Sc diur, vesp]
+23.5 +13.5 53 +26 +26 жарко 1013.6 1000.3
21 22.07 Ю 1 10 км ясно +24.3 +12.4 47 +26 +26 жарко 1013.5 1000.2
00 23.07 С 2 10 км 1/0
[Ci fib]
+20.3 +13.6 65 +23 +23 комфорт 1013.5 1000.1
03 23.07 В 2 10 км 6/0
[Ac cast]
+21.8 +11.1 51 +24 +25 комфорт 1013.5 1000.1 +20.3
06 23.07 В 2 10 км 1/0
[Ac lent]
+24.4 +13.3 50 +27 +36 жарко 1013.1 999.9
09 23.07 ЮВ 2 10 км 6/0
[Ac lent]
+30.8 +10.8 29 +31 +40 жарко 1011.9 998.9
12 23.07 Ю 3 10 км 3/0
[Ac lent]
+31.4 +8.6 24 +30 +37 жарко 1010.9 997.9
15 23.07 Ю 1 10 км ясно +29.9 +9.8 29 +30 +31 жарко 1010.3 997.3 +31.7
18 23.07 штиль 0 10 км ясно +25.8 +11.6 41 +27 +27 жарко 1011.1 997.9
21 23.07 Ю 1 10 км ясно +24.5 +9.9 40 +25 +25 комфорт 1011.0 997.7
03 24.07 штиль 0 10 км 8/0
[Ac lent]
+21.6 +11.4 52 +24 +24 комфорт 1011.0 997.7 +20.6

 

Местоположение метеостанции Волгоград город (Волгоградская область, Россия): широта 48.67 долгота 44.45 высота над уровнем моря 116 м.

В архиве по умолчанию представлена погода в Волгограде город за последнюю неделю. Архивные данные за месяц целиком и за предыдущие месяцы, начиная с января 2011 года, Вы можете получить, выбрав интересующий диапазон дат из раскрывающегося списка и нажав кнопку "Ввод!".


*Определитесь, кто Вы:
робот инопланетянин человек

Внимание! Время в таблицах - всемирное. Для получения местного времени необходимо прибавить поправку, которая равна 3 ч.

Смотрите также архив погоды в соседних городах и на ближайших метеорологических станциях:

Погода в Волгограде (Волгоградская область, Россия) (14 км)
Погода в Калаче-на-Дону (Волгоградская область, Россия) (71 км)
Погода в Иловле (Волгоградская область, Россия) (77 км)
Погода в Малых Дербетах (Калмыкия, Россия) (84 км)
Погода в Нижнем Чире (Волгоградская область, Россия) (105 км)
Погода в Ольховке (Волгоградская область, Россия) (134 км)
Погода в Фролове (Волгоградская область, Россия) (138 км)
Погода в Черный Яр (Астраханская область, Россия) (140 км)
Погода в Кетченерах (Калмыкия, Россия) (150 км)
Погода в Котельниково (Волгоградская область, Россия) (151 км)

Пояснения к столбцам:

Ветер - указаны скорость ветра в м/с - средняя за 10 мин, порывы в срок и между сроками (в фигурных скобках) и направление, откуда дует ветер: С - северный, СВ - северо-восточный, В - восточный, ЮВ - юго-восточный, Ю - южный, ЮЗ - юго-западный, З - западный, СЗ - северо-западный.
Видимость - горизонтальная дальность видимости в метрах или километрах. При видимости от 1 до 10 км при отсутствии осадков обычно наблюдается дымка, при ухудшении видимости до 1 км и менее - туман. В сухую погоду видимость может ухудшаться дымом, пылью или мглою.
Явления - указаны атмосферные явления, наблюдавшиеся в срок или в последний час перед сроком; фигурными скобками обозначены явления, наблюдавшиеся между сроками (за 1-3 часа до срока); квадратными скобками обозначены град или гололедные отложения с указанием их диаметра в мм.
Облачность - указаны через наклонную черту общая и нижняя облачность в баллах и высота нижней границы облаков в метрах; квадратными скобками обозначены формы облаков: Ci - перистые, Cs - перисто-слоистые, Cc - перисто-кучевые, Ac - высококучевые, As - высокослоистые, Sc - слоисто-кучевые, Ns - слоисто-дождевые, Cu - кучевые, Cb - кучево-дождевые. Подробнее классификацию облаков см. в Атласе облаков (PDF).
T - Температура воздуха - температура, измеренная на высоте 2 м над землей.
Td - Температура точки росы - температура, при понижении до которой содержащийся в воздухе водяной пар достигнет насыщения.
f - Относительная влажность воздуха - влажноcть воздуха, измеренная на высоте 2 м над землей.
Te - Эффективная температура - температура, которую ощущает одетый по сезону человек в тени. Характеристика душности погоды. При расчете учитывается влияние влажности воздуха и скорости ветра на теплоощущения человека.
Tes - Эффективная температура на солнце - температура, которую ощущает человек, с поправкой на солнечный нагрев. Характеристика знойности погоды. Зависит от высоты солнца над горизонтом, облачности и скорости ветра. Ночью, в пасмурную погоду, а также при ветре 12 м/с и более поправка равна нулю.
P - Атмосферное давление - приведенное к уровню моря атмосферное давление.
Po - Атмосферное давление - измеренное на уровне метеостанции атмосферное давление.
Tmin - Минимальная температура - минимум температуры воздуха на высоте 2 м над землей.
Tmax - Максимальная температура - максимум температуры воздуха на высоте 2 м над землей.
R - Количество осадков - Количество выпавших осадков за период времени, мм. При наведении курсора мыши на число - период времени, за который выпало указанное количество осадков.
R24 - Количество осадков - Количество выпавших осадков за 24 часа, мм.
S - Снежный покров - Высота снежного покрова, см. При наведении курсора мыши на число - состояние снежного покрова и степень покрытия местности в баллах.